contact:dominique.lefevre@mio.osupytheas.fr, maurice.libes@osupytheas.fr, didier.mallarino@osupytheas.fr
Project:EMSO http://www.emso-fr.org/EMSO-France
Depth: 2436.0 m
Title:EMSO Ligure Ouest : Data MII capteur AQUADOPP
Date,Latitude,Longitude,X_East,Y_North,Z_Up,Amplitude_X,Amplitude_Y,Amplitude_Z,Batterie,SoundSpeed,Heading,Pitch,Roll,Pressure,TIS,Speed,Direction
, degrees North, degrees East, m.s-1, m.s-1,m.s-1, 1, 1, 1, Volt, m.s-1, degree, degree, degree, dbar, degree_C, m.s-1, degree
2020-08-24T00:04:02,42.805,6.029,0.0,-0.013,-0.027,103.0,106.0,101.0,13.3,1505.3,323.0,-0.8,1.8,2470.455,13.31,0.013,180.0
2020-08-24T00:07:02,42.805,6.029,0.009,-0.013,-0.003,103.0,106.0,101.0,13.3,1505.3,323.1,-0.7,1.8,2470.464,13.32,0.015,145.3
2020-08-24T00:10:02,42.805,6.029,0.025,-0.012,0.008,103.0,106.0,102.0,13.4,1505.3,323.5,-0.7,1.9,2470.445,13.32,0.027,115.6
2020-08-24T00:13:02,42.805,6.029,-0.012,-0.012,-0.015,102.0,106.0,103.0,13.4,1505.3,322.9,-0.7,1.8,2470.401,13.32,0.016,225.0
2020-08-24T00:16:02,42.805,6.029,0.004,-0.017,-0.034,103.0,106.0,101.0,13.4,1505.3,323.2,-0.7,1.9,2470.396,13.33,0.017,166.8
2020-08-24T00:19:02,42.805,6.029,0.015,-0.01,-0.024,103.0,106.0,101.0,13.3,1505.3,326.0,-0.7,1.8,2470.411,13.33,0.018,123.7
2020-08-24T00:22:02,42.805,6.029,0.027,-0.019,-0.014,103.0,106.0,102.0,13.4,1505.3,327.0,-0.7,1.8,2470.476,13.33,0.033,125.1
2020-08-24T00:25:03,42.805,6.029,0.03,-0.007,-0.007,103.0,106.0,101.0,13.4,1505.3,327.8,-0.7,1.8,2470.357,13.33,0.03,103.1
2020-08-24T00:28:02,42.805,6.029,0.026,0.0,0.0,102.0,105.0,101.0,13.4,1505.3,327.5,-0.7,1.8,2470.411,13.33,0.026,90.0
2020-08-24T00:31:03,42.805,6.029,0.013,-0.007,0.012,102.0,106.0,101.0,13.3,1505.3,324.6,-0.7,1.8,2470.385,13.33,0.014,118.3
2020-08-24T00:34:02,42.805,6.029,0.024,-0.029,-0.015,104.0,106.0,102.0,13.3,1505.3,325.4,-0.7,1.8,2470.386,13.33,0.037,140.4
2020-08-24T00:37:02,42.805,6.029,0.005,-0.01,-0.042,104.0,104.0,103.0,13.4,1505.3,323.7,-0.7,1.8,2470.384,13.33,0.011,153.4
2020-08-24T00:40:02,42.805,6.029,0.022,-0.013,-0.014,104.0,105.0,103.0,13.3,1505.3,327.9,-0.7,1.8,2470.346,13.33,0.025,120.6
2020-08-24T00:43:03,42.805,6.029,0.004,0.002,-0.077,102.0,106.0,103.0,13.4,1505.3,326.9,-0.7,1.9,2470.362,13.33,0.004,63.4
2020-08-24T00:46:02,42.805,6.029,0.006,-0.016,-0.029,103.0,106.0,101.0,13.4,1505.3,326.4,-0.7,1.9,2470.399,13.33,0.017,159.4
2020-08-24T00:49:02,42.805,6.029,0.009,-0.01,-0.02,103.0,107.0,102.0,13.4,1505.3,327.0,-0.7,1.8,2470.387,13.33,0.013,138.0
2020-08-24T00:52:02,42.805,6.029,0.022,-0.005,-0.019,102.0,106.0,101.0,13.4,1505.3,327.5,-0.7,1.8,2470.387,13.33,0.022,102.8
2020-08-24T00:55:03,42.805,6.029,-0.005,-0.016,-0.064,105.0,106.0,102.0,13.4,1505.3,326.1,-0.7,1.9,2470.372,13.33,0.016,197.4
2020-08-24T00:58:03,42.805,6.029,0.026,-0.015,-0.025,105.0,107.0,103.0,13.4,1505.3,324.0,-0.7,1.8,2470.378,13.33,0.03,120.0
2020-08-24T01:04:02,42.805,6.029,0.003,-0.021,-0.012,105.0,107.0,104.0,13.3,1505.3,326.6,-0.7,1.9,2470.427,13.31,0.021,171.9
2020-08-24T01:07:02,42.805,6.029,0.004,-0.011,-0.022,103.0,106.0,103.0,13.4,1505.3,325.8,-0.7,1.8,2470.404,13.32,0.011,160.0
2020-08-24T01:10:03,42.805,6.029,0.022,0.0,-0.002,104.0,106.0,102.0,13.4,1505.3,323.8,-0.7,1.8,2470.388,13.32,0.022,90.0
2020-08-24T01:13:02,42.805,6.029,0.023,-0.016,0.004,105.0,106.0,101.0,13.4,1505.3,323.8,-0.7,1.8,2470.384,13.33,0.028,124.8
2020-08-24T01:16:03,42.805,6.029,0.017,-0.018,-0.013,105.0,106.0,101.0,13.4,1505.3,324.8,-0.7,1.9,2470.433,13.33,0.024,136.6
2020-08-24T01:19:02,42.805,6.029,-0.004,-0.025,-0.02,103.0,106.0,102.0,13.4,1505.3,327.1,-0.7,1.9,2470.389,13.33,0.025,189.1
2020-08-24T01:22:02,42.805,6.029,0.002,0.002,-0.009,106.0,106.0,100.0,13.4,1505.3,322.8,-0.7,1.8,2470.373,13.33,0.002,45.0
2020-08-24T01:25:03,42.805,6.029,0.007,0.004,0.011,104.0,107.0,103.0,13.3,1505.3,324.3,-0.7,1.8,2470.381,13.33,0.008,60.3
2020-08-24T01:28:03,42.805,6.029,0.007,-0.009,0.008,104.0,105.0,103.0,13.4,1505.3,326.4,-0.7,1.9,2470.341,13.33,0.011,142.1
2020-08-24T01:31:03,42.805,6.029,0.033,-0.016,-0.013,106.0,107.0,103.0,13.4,1505.3,325.1,-0.7,1.9,2470.35,13.33,0.036,115.9
2020-08-24T01:34:02,42.805,6.029,0.008,-0.01,0.014,104.0,105.0,102.0,13.4,1505.3,323.3,-0.7,1.8,2470.368,13.33,0.012,141.3
2020-08-24T01:37:02,42.805,6.029,0.022,-0.014,-0.022,105.0,106.0,103.0,13.4,1505.3,327.6,-0.7,1.9,2470.333,13.33,0.026,122.5
2020-08-24T01:40:02,42.805,6.029,0.009,-0.002,-0.01,105.0,108.0,102.0,13.4,1505.3,324.6,-0.7,1.8,2470.354,13.33,0.009,102.5
2020-08-24T01:43:02,42.805,6.029,0.01,-0.019,-0.015,103.0,106.0,102.0,13.3,1505.3,326.1,-0.7,1.8,2470.322,13.33,0.021,152.2
2020-08-24T01:46:02,42.805,6.029,0.008,-0.004,-0.014,104.0,105.0,103.0,13.3,1505.3,326.9,-0.7,1.8,2470.349,13.33,0.008,116.6
2020-08-24T01:49:02,42.805,6.029,-0.002,0.002,-0.015,105.0,106.0,102.0,13.4,1505.3,325.9,-0.7,1.8,2470.304,13.33,0.002,315.0
2020-08-24T01:52:02,42.805,6.029,0.009,-0.005,-0.02,105.0,105.0,102.0,13.3,1505.3,328.1,-0.7,1.8,2470.35,13.33,0.01,119.1
2020-08-24T01:55:03,42.805,6.029,0.007,-0.018,-0.031,106.0,107.0,103.0,13.4,1505.3,326.8,-0.7,1.9,2470.339,13.33,0.019,158.8
2020-08-24T01:58:03,42.805,6.029,-0.004,0.004,-0.018,102.0,106.0,102.0,13.4,1505.3,327.8,-0.7,1.9,2470.358,13.33,0.005,315.0
2020-08-24T02:04:02,42.805,6.029,-0.008,-0.015,-0.021,105.0,105.0,102.0,13.3,1505.3,323.6,-0.7,1.8,2470.367,13.31,0.017,208.1
2020-08-24T02:07:02,42.805,6.029,-0.002,-0.014,-0.044,104.0,106.0,102.0,13.3,1505.3,326.4,-0.7,1.8,2470.344,13.32,0.014,188.1
2020-08-24T02:10:03,42.805,6.029,0.011,0.0,-0.026,103.0,105.0,102.0,13.3,1505.3,327.9,-0.7,1.8,2470.327,13.33,0.011,90.0
2020-08-24T02:13:02,42.805,6.029,-0.016,-0.004,-0.034,104.0,105.0,101.0,13.4,1505.3,324.5,-0.7,1.8,2470.302,13.33,0.016,256.0
2020-08-24T02:16:02,42.805,6.029,0.008,0.006,-0.021,104.0,105.0,101.0,13.4,1505.3,325.1,-0.7,1.8,2470.349,13.33,0.01,53.1
2020-08-24T02:19:02,42.805,6.029,0.03,-0.029,0.003,103.0,106.0,103.0,13.4,1505.3,323.8,-0.7,1.8,2470.322,13.33,0.041,134.0
2020-08-24T02:22:02,42.805,6.029,-0.003,-0.031,-0.026,103.0,105.0,101.0,13.4,1505.3,325.0,-0.7,1.8,2470.353,13.33,0.031,185.5
2020-08-24T02:25:03,42.805,6.029,-0.021,-0.01,-0.053,104.0,104.0,102.0,13.4,1505.3,326.6,-0.7,1.9,2470.318,13.33,0.023,244.5
2020-08-24T02:28:03,42.805,6.029,0.008,0.002,-0.015,104.0,104.0,101.0,13.4,1505.3,323.0,-0.7,1.8,2470.308,13.33,0.008,76.0
2020-08-24T02:31:02,42.805,6.029,0.002,-0.011,-0.043,104.0,104.0,101.0,13.3,1505.3,327.9,-0.7,1.8,2470.287,13.33,0.011,169.7
2020-08-24T02:34:02,42.805,6.029,0.017,-0.004,-0.004,102.0,105.0,102.0,13.3,1505.3,324.0,-0.7,1.8,2470.32,13.33,0.017,103.2
2020-08-24T02:37:02,42.805,6.029,0.011,0.01,0.004,105.0,106.0,102.0,13.4,1505.3,325.6,-0.7,1.8,2470.356,13.33,0.014,47.7
2020-08-24T02:40:03,42.805,6.029,0.005,-0.016,0.006,105.0,106.0,102.0,13.4,1505.3,323.4,-0.7,1.8,2470.326,13.33,0.016,162.6
2020-08-24T02:43:03,42.805,6.029,0.012,0.01,-0.029,104.0,106.0,103.0,13.4,1505.3,326.1,-0.7,1.8,2470.344,13.33,0.015,50.2
2020-08-24T02:46:03,42.805,6.029,-0.048,0.001,-0.097,104.0,105.0,101.0,13.3,1505.3,325.4,-0.7,1.8,2470.297,13.33,0.048,271.2
2020-08-24T02:49:02,42.805,6.029,-0.018,-0.015,-0.079,104.0,104.0,102.0,13.3,1505.3,326.8,-0.7,1.9,2470.311,13.33,0.023,230.2
2020-08-24T02:52:02,42.805,6.029,-0.063,-0.011,-0.054,104.0,106.0,99.0,13.4,1505.3,324.5,-0.7,1.9,2470.313,13.33,0.063,260.1
2020-08-24T02:55:02,42.805,6.029,-0.038,-0.004,-0.065,102.0,107.0,101.0,13.3,1505.3,324.1,-0.7,1.8,2470.308,13.33,0.038,264.0
2020-08-24T02:58:02,42.805,6.029,-0.024,-0.005,-0.071,103.0,107.0,101.0,13.3,1505.3,324.4,-0.7,1.8,2470.318,13.33,0.024,258.2
2020-08-24T03:04:02,42.805,6.029,0.037,0.015,0.009,103.0,106.0,100.0,13.3,1505.3,326.5,-0.7,1.8,2470.334,13.31,0.039,67.9
2020-08-24T03:07:02,42.805,6.029,-0.007,-0.011,-0.006,105.0,104.0,102.0,13.4,1505.3,323.5,-0.7,1.8,2470.344,13.32,0.013,212.5
2020-08-24T03:10:03,42.805,6.029,0.012,-0.001,-0.005,104.0,105.0,101.0,13.3,1505.3,324.8,-0.7,1.8,2470.315,13.33,0.012,94.8
2020-08-24T03:13:02,42.805,6.029,0.021,-0.007,0.011,102.0,106.0,101.0,13.4,1505.3,326.7,-0.7,1.9,2470.329,13.33,0.022,108.4
2020-08-24T03:16:03,42.805,6.029,0.014,0.014,0.012,103.0,106.0,100.0,13.4,1505.3,326.2,-0.7,1.8,2470.333,13.33,0.019,45.0
2020-08-24T03:19:03,42.805,6.029,0.001,0.01,0.016,102.0,104.0,101.0,13.4,1505.3,326.3,-0.7,1.8,2470.341,13.33,0.01,5.7
2020-08-24T03:22:02,42.805,6.029,0.005,0.0,-0.006,103.0,105.0,101.0,13.3,1505.3,326.5,-0.7,1.8,2470.298,13.33,0.005,90.0
2020-08-24T03:25:03,42.805,6.029,-0.001,0.006,-0.01,103.0,107.0,101.0,13.4,1505.3,324.2,-0.7,1.8,2470.335,13.33,0.006,350.5
2020-08-24T03:28:02,42.805,6.029,-0.011,-0.011,-0.021,103.0,106.0,100.0,13.4,1505.3,326.9,-0.7,1.8,2470.337,13.33,0.015,225.0
2020-08-24T03:31:02,42.805,6.029,-0.01,0.013,0.039,103.0,106.0,102.0,13.4,1505.3,325.0,-0.7,1.8,2470.275,13.33,0.016,322.4
2020-08-24T03:34:03,42.805,6.029,0.027,-0.013,-0.002,106.0,106.0,101.0,13.4,1505.3,325.9,-0.7,1.8,2470.261,13.33,0.029,115.7
2020-08-24T03:37:02,42.805,6.029,0.002,-0.001,0.003,104.0,107.0,101.0,13.3,1505.3,324.3,-0.7,1.8,2470.294,13.33,0.002,116.6
2020-08-24T03:40:03,42.805,6.029,0.024,-0.001,0.009,104.0,106.0,101.0,13.3,1505.3,326.8,-0.7,1.8,2470.276,13.33,0.024,92.4
2020-08-24T03:43:03,42.805,6.029,-0.004,-0.003,-0.04,103.0,106.0,102.0,13.3,1505.3,325.7,-0.7,1.8,2470.309,13.33,0.005,233.1
2020-08-24T03:46:02,42.805,6.029,0.034,0.008,0.024,104.0,105.0,103.0,13.3,1505.3,324.7,-0.7,1.9,2470.261,13.33,0.034,76.8
2020-08-24T03:49:03,42.805,6.029,-0.002,-0.021,-0.054,104.0,107.0,102.0,13.3,1505.3,324.8,-0.7,1.8,2470.314,13.33,0.021,185.4
2020-08-24T03:52:02,42.805,6.029,0.0,-0.022,-0.022,104.0,107.0,102.0,13.3,1505.3,327.6,-0.7,1.8,2470.288,13.33,0.022,180.0
2020-08-24T03:55:03,42.805,6.029,0.017,-0.01,-0.015,104.0,105.0,102.0,13.4,1505.3,327.5,-0.7,1.8,2470.259,13.33,0.019,120.5
2020-08-24T03:58:03,42.805,6.029,0.009,-0.003,-0.016,104.0,106.0,103.0,13.4,1505.3,325.2,-0.7,1.8,2470.323,13.33,0.009,108.4
2020-08-24T04:04:02,42.805,6.029,0.014,-0.003,0.024,104.0,106.0,103.0,13.4,1505.3,324.6,-0.8,1.9,2470.339,13.31,0.014,102.1
2020-08-24T04:07:02,42.805,6.029,0.002,0.0,-0.017,104.0,107.0,102.0,13.3,1505.3,325.5,-0.7,1.8,2470.298,13.32,0.002,90.0
2020-08-24T04:10:03,42.805,6.029,0.004,-0.018,-0.016,103.0,106.0,102.0,13.3,1505.3,328.3,-0.7,1.8,2470.285,13.32,0.018,167.5
2020-08-24T04:13:03,42.805,6.029,0.013,-0.006,0.017,103.0,105.0,102.0,13.4,1505.3,327.8,-0.7,1.8,2470.3,13.33,0.014,114.8
2020-08-24T04:16:02,42.805,6.029,0.015,-0.002,-0.022,104.0,106.0,101.0,13.4,1505.3,324.8,-0.7,1.8,2470.3,13.33,0.015,97.6
2020-08-24T04:19:03,42.805,6.029,0.02,0.006,-0.007,103.0,107.0,101.0,13.4,1505.3,323.6,-0.7,1.8,2470.299,13.33,0.02,73.3
2020-08-24T04:22:02,42.805,6.029,-0.01,-0.011,-0.021,103.0,106.0,101.0,13.4,1505.3,326.1,-0.7,1.8,2470.294,13.33,0.014,222.3
2020-08-24T04:25:03,42.805,6.029,0.039,-0.014,-0.004,105.0,108.0,102.0,13.4,1505.3,323.5,-0.7,1.8,2470.305,13.33,0.041,109.7
2020-08-24T04:28:03,42.805,6.029,0.026,-0.021,0.005,104.0,106.0,103.0,13.4,1505.3,325.9,-0.7,1.8,2470.278,13.33,0.033,128.9
2020-08-24T04:31:03,42.805,6.029,0.026,-0.004,0.009,104.0,107.0,102.0,13.4,1505.3,328.0,-0.7,1.8,2470.281,13.33,0.026,98.7
2020-08-24T04:34:03,42.805,6.029,-0.003,-0.008,-0.05,104.0,107.0,101.0,13.3,1505.3,326.4,-0.7,1.8,2470.238,13.33,0.008,200.6
2020-08-24T04:37:02,42.805,6.029,0.005,-0.009,-0.039,106.0,109.0,102.0,13.4,1505.3,326.7,-0.7,1.8,2470.254,13.33,0.01,150.9
2020-08-24T04:40:03,42.805,6.029,0.015,-0.015,-0.012,104.0,107.0,101.0,13.3,1505.3,324.1,-0.7,1.8,2470.266,13.33,0.021,135.0
2020-08-24T04:43:03,42.805,6.029,0.014,-0.021,-0.005,104.0,107.0,102.0,13.3,1505.3,328.2,-0.7,1.9,2470.293,13.33,0.025,146.3
2020-08-24T04:46:02,42.805,6.029,0.021,-0.016,0.032,106.0,107.0,102.0,13.3,1505.3,328.2,-0.7,1.8,2470.282,13.33,0.026,127.3
2020-08-24T04:49:03,42.805,6.029,-0.007,0.005,-0.003,105.0,107.0,102.0,13.4,1505.3,325.3,-0.7,1.8,2470.289,13.33,0.008,305.5
2020-08-24T04:52:02,42.805,6.029,0.011,-0.004,-0.012,105.0,107.0,101.0,13.4,1505.3,326.3,-0.7,1.8,2470.236,13.33,0.011,110.0
2020-08-24T04:55:03,42.805,6.029,0.011,-0.016,-0.026,103.0,105.0,101.0,13.4,1505.3,327.5,-0.7,1.9,2470.248,13.33,0.019,145.5
2020-08-24T04:58:02,42.805,6.029,0.047,-0.014,0.009,106.0,105.0,102.0,13.4,1505.3,326.3,-0.7,1.8,2470.236,13.33,0.049,106.6
2020-08-24T05:04:02,42.805,6.029,0.01,-0.009,0.005,103.0,107.0,101.0,13.3,1505.3,327.6,-0.7,1.8,2470.317,13.31,0.013,132.0
2020-08-24T05:07:02,42.805,6.029,0.008,-0.004,-0.004,103.0,106.0,103.0,13.3,1505.3,326.1,-0.7,1.8,2470.292,13.31,0.008,116.6
2020-08-24T05:10:02,42.805,6.029,0.012,-0.011,-0.013,104.0,106.0,101.0,13.4,1505.3,325.0,-0.7,1.8,2470.272,13.32,0.016,132.5
2020-08-24T05:13:03,42.805,6.029,0.006,-0.022,-0.014,103.0,106.0,101.0,13.3,1505.3,326.5,-0.7,1.8,2470.28,13.32,0.022,164.7
2020-08-24T05:16:03,42.805,6.029,0.01,-0.028,-0.03,103.0,105.0,101.0,13.4,1505.3,324.1,-0.7,1.9,2470.282,13.32,0.029,160.4
2020-08-24T05:19:03,42.805,6.029,0.038,-0.013,0.014,103.0,106.0,100.0,13.4,1505.3,327.5,-0.7,1.8,2470.272,13.33,0.04,108.9
2020-08-24T05:22:02,42.805,6.029,0.019,-0.013,-0.012,103.0,106.0,101.0,13.4,1505.3,328.0,-0.7,1.8,2470.272,13.33,0.023,124.4
2020-08-24T05:25:03,42.805,6.029,0.029,-0.01,0.0,102.0,104.0,101.0,13.4,1505.3,325.0,-0.7,1.8,2470.225,13.33,0.03,109.0
2020-08-24T05:28:03,42.805,6.029,0.006,0.004,0.013,101.0,106.0,101.0,13.4,1505.3,322.8,-0.7,1.8,2470.285,13.33,0.007,56.3
2020-08-24T05:31:03,42.805,6.029,0.003,-0.029,0.005,103.0,105.0,101.0,13.3,1505.3,324.5,-0.7,1.8,2470.258,13.33,0.029,174.1
2020-08-24T05:34:03,42.805,6.029,0.028,-0.01,0.021,103.0,105.0,101.0,13.3,1505.3,323.4,-0.7,1.8,2470.235,13.33,0.029,109.6
2020-08-24T05:37:02,42.805,6.029,0.022,-0.006,0.004,103.0,104.0,101.0,13.3,1505.3,326.6,-0.7,1.8,2470.235,13.33,0.022,105.3
2020-08-24T05:40:02,42.805,6.029,0.029,-0.034,0.012,106.0,106.0,101.0,13.4,1505.3,325.1,-0.7,1.8,2470.261,13.33,0.044,139.5
2020-08-24T05:43:03,42.805,6.029,0.034,-0.013,0.002,103.0,105.0,101.0,13.4,1505.3,325.7,-0.7,1.8,2470.263,13.33,0.036,110.9
2020-08-24T05:46:03,42.805,6.029,0.007,-0.013,0.008,106.0,106.0,100.0,13.4,1505.3,326.9,-0.7,1.8,2470.281,13.33,0.014,151.7
2020-08-24T05:49:03,42.805,6.029,0.026,0.0,0.02,104.0,105.0,101.0,13.4,1505.3,323.0,-0.7,1.8,2470.242,13.33,0.026,90.0
2020-08-24T05:52:02,42.805,6.029,0.035,-0.009,-0.004,102.0,105.0,101.0,13.4,1505.3,326.8,-0.7,1.8,2470.228,13.33,0.036,104.4
2020-08-24T05:55:03,42.805,6.029,0.012,0.0,-0.012,102.0,106.0,101.0,13.3,1505.3,327.0,-0.7,1.8,2470.251,13.33,0.012,90.0
2020-08-24T05:58:03,42.805,6.029,0.027,-0.02,-0.003,104.0,105.0,101.0,13.4,1505.3,327.1,-0.7,1.9,2470.236,13.33,0.033,126.5
2020-08-24T06:04:02,42.805,6.029,0.011,-0.01,0.001,104.0,106.0,102.0,13.3,1505.3,324.4,-0.7,1.9,2470.274,13.31,0.014,132.3
2020-08-24T06:07:02,42.805,6.029,0.034,-0.007,0.014,103.0,105.0,101.0,13.3,1505.3,326.7,-0.7,1.8,2470.275,13.32,0.034,101.6
2020-08-24T06:10:03,42.805,6.029,0.025,-0.019,-0.025,103.0,106.0,102.0,13.4,1505.3,326.2,-0.7,1.8,2470.216,13.32,0.031,127.2
2020-08-24T06:13:03,42.805,6.029,0.024,-0.007,0.009,104.0,106.0,100.0,13.4,1505.3,327.8,-0.7,1.8,2470.293,13.32,0.025,106.3
2020-08-24T06:16:03,42.805,6.029,0.025,-0.018,0.001,103.0,104.0,101.0,13.4,1505.3,324.8,-0.7,1.8,2470.294,13.32,0.03,125.8
2020-08-24T06:19:03,42.805,6.029,0.026,-0.023,-0.003,103.0,104.0,101.0,13.3,1505.3,327.9,-0.7,1.8,2470.239,13.33,0.034,131.5
2020-08-24T06:22:02,42.805,6.029,0.039,-0.023,0.0,103.0,104.0,102.0,13.4,1505.3,326.6,-0.7,1.8,2470.254,13.33,0.045,120.5
2020-08-24T06:25:03,42.805,6.029,0.014,-0.013,0.0,103.0,106.0,101.0,13.3,1505.3,326.0,-0.7,1.8,2470.234,13.33,0.019,132.9
2020-08-24T06:28:02,42.805,6.029,0.008,-0.001,-0.02,105.0,107.0,101.0,13.4,1505.3,324.0,-0.7,1.8,2470.278,13.33,0.008,97.1
2020-08-24T06:31:03,42.805,6.029,0.018,-0.018,0.002,104.0,106.0,103.0,13.3,1505.3,323.4,-0.7,1.8,2470.217,13.33,0.025,135.0
2020-08-24T06:34:03,42.805,6.029,0.032,-0.004,0.002,103.0,106.0,102.0,13.4,1505.3,326.3,-0.7,1.9,2470.293,13.33,0.032,97.1
2020-08-24T06:37:02,42.805,6.029,0.005,-0.014,-0.021,105.0,105.0,101.0,13.3,1505.3,325.7,-0.7,1.9,2470.224,13.33,0.014,160.4
2020-08-24T06:40:03,42.805,6.029,0.017,-0.014,-0.029,104.0,106.0,102.0,13.3,1505.3,327.7,-0.7,1.8,2470.287,13.33,0.022,129.5
2020-08-24T06:43:03,42.805,6.029,0.015,-0.032,-0.029,104.0,105.0,102.0,13.3,1505.3,328.0,-0.7,1.8,2470.235,13.33,0.035,154.9
2020-08-24T06:46:03,42.805,6.029,0.015,-0.008,-0.015,104.0,105.0,101.0,13.4,1505.3,324.4,-0.7,1.9,2470.245,13.33,0.017,118.1
2020-08-24T06:49:03,42.805,6.029,0.033,-0.013,-0.01,104.0,105.0,102.0,13.4,1505.3,326.1,-0.7,1.8,2470.265,13.33,0.035,111.5
2020-08-24T06:52:02,42.805,6.029,0.027,0.006,0.01,104.0,106.0,100.0,13.3,1505.3,322.7,-0.7,1.8,2470.275,13.33,0.027,77.5
2020-08-24T06:55:03,42.805,6.029,0.025,-0.001,0.019,104.0,107.0,102.0,13.4,1505.3,323.4,-0.7,1.9,2470.256,13.33,0.025,92.3
2020-08-24T06:58:03,42.805,6.029,0.019,-0.026,-0.005,105.0,105.0,101.0,13.4,1505.3,325.7,-0.7,1.8,2470.214,13.33,0.032,143.8
2020-08-24T07:04:02,42.805,6.029,0.029,-0.014,-0.013,106.0,107.0,102.0,13.4,1505.3,325.1,-0.7,1.8,2470.313,13.31,0.032,115.8
2020-08-24T07:07:02,42.805,6.029,0.042,-0.02,0.022,104.0,105.0,102.0,13.3,1505.3,326.5,-0.7,1.8,2470.276,13.32,0.046,115.5
2020-08-24T07:10:03,42.805,6.029,0.025,-0.009,0.005,105.0,107.0,101.0,13.4,1505.3,324.2,-0.7,1.8,2470.304,13.32,0.026,109.8
2020-08-24T07:13:03,42.805,6.029,0.019,-0.016,-0.021,103.0,108.0,102.0,13.4,1505.3,325.6,-0.7,1.8,2470.286,13.32,0.024,130.1
2020-08-24T07:16:02,42.805,6.029,0.007,-0.008,0.009,104.0,107.0,102.0,13.3,1505.3,326.7,-0.7,1.8,2470.278,13.33,0.01,138.8
2020-08-24T07:19:03,42.805,6.029,0.012,-0.014,-0.016,105.0,105.0,102.0,13.3,1505.3,325.0,-0.7,1.8,2470.267,13.33,0.018,139.4
2020-08-24T07:22:03,42.805,6.029,0.041,-0.009,-0.032,104.0,108.0,102.0,13.4,1505.3,326.3,-0.7,1.8,2470.297,13.33,0.041,102.4
2020-08-24T07:25:03,42.805,6.029,0.031,-0.02,-0.015,104.0,108.0,102.0,13.4,1505.3,326.5,-0.7,1.9,2470.3,13.33,0.036,122.8
2020-08-24T07:28:02,42.805,6.029,0.028,-0.031,-0.002,104.0,107.0,102.0,13.4,1505.3,327.6,-0.7,1.8,2470.298,13.33,0.041,137.9
2020-08-24T07:31:03,42.805,6.029,0.022,-0.03,-0.009,104.0,107.0,102.0,13.4,1505.3,327.6,-0.7,1.8,2470.307,13.33,0.037,143.7
2020-08-24T07:34:03,42.805,6.029,0.018,-0.018,0.008,105.0,106.0,102.0,13.4,1505.3,327.8,-0.7,1.8,2470.272,13.33,0.025,135.0
2020-08-24T07:37:02,42.805,6.029,0.037,-0.021,-0.026,104.0,107.0,102.0,13.4,1505.3,325.1,-0.7,1.8,2470.312,13.33,0.042,119.6
2020-08-24T07:40:03,42.805,6.029,0.012,-0.01,-0.015,104.0,107.0,102.0,13.4,1505.3,327.0,-0.7,1.8,2470.246,13.33,0.015,129.8
2020-08-24T07:43:03,42.805,6.029,-0.001,-0.019,-0.034,104.0,107.0,101.0,13.4,1505.3,326.3,-0.7,1.8,2470.324,13.33,0.019,183.0
2020-08-24T07:46:03,42.805,6.029,0.029,-0.018,0.019,104.0,106.0,101.0,13.4,1505.3,323.4,-0.7,1.8,2470.306,13.33,0.034,121.8
2020-08-24T07:49:03,42.805,6.029,0.017,-0.024,-0.036,106.0,106.0,102.0,13.3,1505.3,324.2,-0.7,1.8,2470.275,13.33,0.029,144.7
2020-08-24T07:52:03,42.805,6.029,0.017,-0.023,0.014,106.0,107.0,101.0,13.3,1505.3,326.7,-0.7,1.8,2470.347,13.33,0.028,143.5
2020-08-24T07:55:03,42.805,6.029,-0.001,-0.012,-0.015,105.0,108.0,102.0,13.3,1505.3,326.2,-0.7,1.8,2470.322,13.33,0.012,184.8
2020-08-24T07:58:03,42.805,6.029,0.013,-0.015,-0.023,105.0,108.0,103.0,13.4,1505.3,326.4,-0.7,1.8,2470.325,13.33,0.019,139.1
2020-08-24T08:04:02,42.805,6.029,0.0,-0.021,-0.013,104.0,108.0,102.0,13.4,1505.3,328.3,-0.7,1.8,2470.366,13.31,0.021,180.0
2020-08-24T08:07:02,42.805,6.029,0.014,-0.03,-0.034,107.0,109.0,101.0,13.4,1505.3,327.9,-0.7,1.9,2470.392,13.31,0.033,155.0
2020-08-24T08:10:03,42.805,6.029,0.013,-0.034,-0.018,105.0,109.0,102.0,13.4,1505.3,327.1,-0.7,1.9,2470.385,13.32,0.036,159.1
2020-08-24T08:13:03,42.805,6.029,0.027,-0.024,-0.028,105.0,107.0,103.0,13.4,1505.3,328.2,-0.7,1.8,2470.343,13.32,0.036,131.6
2020-08-24T08:16:03,42.805,6.029,0.012,0.002,-0.016,105.0,106.0,102.0,13.4,1505.3,324.2,-0.7,1.8,2470.341,13.32,0.012,80.5
2020-08-24T08:19:03,42.805,6.029,0.0,-0.027,-0.011,105.0,107.0,102.0,13.4,1505.3,325.6,-0.7,1.8,2470.316,13.33,0.026,180.0
2020-08-24T08:22:03,42.805,6.029,0.0,-0.006,-0.021,105.0,106.0,103.0,13.4,1505.3,324.1,-0.7,1.8,2470.354,13.33,0.006,180.0
2020-08-24T08:25:03,42.805,6.029,0.004,-0.012,-0.025,104.0,106.0,102.0,13.4,1505.3,326.1,-0.7,1.8,2470.325,13.33,0.012,161.6
2020-08-24T08:28:03,42.805,6.029,0.031,-0.013,-0.003,103.0,107.0,102.0,13.3,1505.3,325.9,-0.7,1.8,2470.385,13.33,0.033,112.7
2020-08-24T08:31:03,42.805,6.029,0.001,-0.023,-0.037,104.0,106.0,102.0,13.3,1505.3,325.0,-0.7,1.8,2470.333,13.33,0.023,177.5
2020-08-24T08:34:03,42.805,6.029,0.027,-0.016,0.009,105.0,107.0,101.0,13.3,1505.3,322.5,-0.7,1.8,2470.389,13.33,0.031,120.7
2020-08-24T08:37:02,42.805,6.029,0.019,0.0,-0.024,104.0,106.0,101.0,13.3,1505.3,326.0,-0.6,1.8,2470.332,13.33,0.019,90.0
2020-08-24T08:40:03,42.805,6.029,0.014,-0.009,-0.002,106.0,106.0,103.0,13.4,1505.3,327.2,-0.7,1.9,2470.327,13.33,0.016,122.7
2020-08-24T08:43:03,42.805,6.029,0.026,0.001,0.011,105.0,106.0,101.0,13.4,1505.3,323.8,-0.7,1.8,2470.323,13.33,0.026,87.8
2020-08-24T08:46:02,42.805,6.029,0.015,-0.034,-0.031,104.0,106.0,102.0,13.3,1505.3,323.4,-0.7,1.8,2470.365,13.33,0.037,156.2
2020-08-24T08:49:03,42.805,6.029,-0.009,-0.034,-0.028,103.0,106.0,101.0,13.4,1505.3,325.6,-0.7,1.8,2470.375,13.33,0.035,194.8
2020-08-24T08:52:02,42.805,6.029,0.009,-0.038,-0.02,104.0,106.0,102.0,13.3,1505.3,323.5,-0.7,1.8,2470.336,13.33,0.039,166.7
2020-08-24T08:55:02,42.805,6.029,0.02,-0.035,-0.024,104.0,106.0,101.0,13.4,1505.3,325.0,-0.7,1.9,2470.373,13.33,0.04,150.3
2020-08-24T08:58:03,42.805,6.029,0.022,-0.023,-0.018,105.0,106.0,102.0,13.4,1505.3,325.7,-0.7,1.8,2470.353,13.33,0.031,136.3
2020-08-24T09:04:02,42.805,6.029,0.031,-0.011,-0.015,105.0,107.0,103.0,13.3,1505.3,325.0,-0.7,1.8,2470.398,13.31,0.032,109.5
2020-08-24T09:07:03,42.805,6.029,0.017,-0.013,0.007,105.0,107.0,102.0,13.4,1505.3,323.6,-0.7,1.8,2470.379,13.31,0.021,127.4
2020-08-24T09:10:03,42.805,6.029,0.037,-0.022,-0.002,107.0,107.0,101.0,13.3,1505.3,326.4,-0.7,1.8,2470.392,13.32,0.043,120.7
2020-08-24T09:13:03,42.805,6.029,0.0,-0.014,-0.064,106.0,109.0,101.0,13.4,1505.3,325.2,-0.7,1.8,2470.437,13.32,0.014,180.0
2020-08-24T09:16:03,42.805,6.029,-0.01,-0.012,-0.021,104.0,107.0,103.0,13.4,1505.3,325.5,-0.7,1.8,2470.388,13.33,0.015,219.8
2020-08-24T09:19:03,42.805,6.029,-0.015,-0.014,-0.05,105.0,108.0,103.0,13.4,1505.3,327.7,-0.8,1.8,2470.404,13.33,0.02,227.0
2020-08-24T09:22:03,42.805,6.029,0.004,0.005,-0.022,105.0,106.0,103.0,13.4,1505.3,324.2,-0.7,1.8,2470.353,13.33,0.006,38.7
2020-08-24T09:25:03,42.805,6.029,0.039,-0.034,-0.016,106.0,107.0,102.0,13.4,1505.3,323.4,-0.7,1.8,2470.407,13.33,0.051,131.1
2020-08-24T09:28:03,42.805,6.029,0.036,-0.025,0.004,104.0,106.0,102.0,13.3,1505.3,325.5,-0.7,1.8,2470.41,13.33,0.043,124.8
2020-08-24T09:31:03,42.805,6.029,-0.001,-0.028,-0.052,104.0,105.0,102.0,13.4,1505.3,325.1,-0.7,1.8,2470.384,13.33,0.028,182.0
2020-08-24T09:34:03,42.805,6.029,0.007,-0.012,-0.027,106.0,107.0,102.0,13.4,1505.3,324.4,-0.7,1.8,2470.358,13.33,0.013,149.7
2020-08-24T09:37:02,42.805,6.029,0.008,-0.002,0.011,106.0,108.0,103.0,13.4,1505.3,327.6,-0.7,1.8,2470.407,13.33,0.008,104.0
2020-08-24T09:40:03,42.805,6.029,0.038,-0.023,0.003,105.0,106.0,102.0,13.4,1505.3,325.5,-0.7,1.8,2470.422,13.33,0.044,121.2
2020-08-24T09:43:03,42.805,6.029,0.003,-0.025,-0.024,105.0,108.0,102.0,13.4,1505.3,327.9,-0.7,1.8,2470.384,13.33,0.025,173.2
2020-08-24T09:46:03,42.805,6.029,-0.021,-0.018,-0.055,105.0,108.0,102.0,13.4,1505.3,325.9,-0.7,1.8,2470.381,13.33,0.027,229.4
2020-08-24T09:49:03,42.805,6.029,-0.003,-0.017,-0.033,105.0,109.0,104.0,13.4,1505.3,326.9,-0.7,1.8,2470.411,13.33,0.017,190.0
2020-08-24T09:52:02,42.805,6.029,-0.032,-0.018,-0.042,104.0,108.0,102.0,13.4,1505.3,325.4,-0.7,1.8,2470.418,13.33,0.036,240.6
2020-08-24T09:55:03,42.805,6.029,0.021,-0.027,-0.054,105.0,109.0,102.0,13.4,1505.3,327.6,-0.7,1.8,2470.407,13.33,0.034,142.1